Temp
7 7 7 8 8 8 9 9 9 9 9 9 9 9 9 8 8 7 7 7 7 7 7 7 7 7 7 7 7 7 7 7 7 7 7 7 7 7 7 7 7 7 7 7 7 7 7 7 7 6 6 6 6 7 6 6 5 5 6 7 7 8 8 8 8 8 10 10 10 10 11 11 11 11 11 12 12 12 12 12 13 12 12 12 12
7 7 7 7 8 8 8 8 8 8 8 8 8 8 8 8 7 7 7 7 7 7 7 7 7 7 7 7 7 7 7 7 7 7 7 7 7 7 7 6 6 6 6 6 6 6 6 6 6 6 6 6 6 6 5 5 5 5 5 6 6 7 7 7 7 7 8 9 10 10 10 11 11 11 11 12 12 12 12 12 12 12 12 13 12
6 7 7 7 8 8 8 8 8 8 8 8 8 8 8 7 7 7 7 7 6 6 6 6 6 6 7 7 7 7 6 6 6 6 6 6 6 6 6 6 6 6 6 5 5 6 6 6 6 6 6 6 5 5 5 4 4 4 5 5 5 6 7 6 6 6 7 8 9 9 10 10 10 11 11 11 12 12 12 12 12 12 12 12 13
6 6 7 7 7 7 7 7 7 8 8 8 7 7 7 7 7 6 6 6 6 6 6 6 6 6 6 6 6 6 6 6 6 6 6 6 6 6 5 5 5 5 5 5 5 5 5 5 5 5 5 5 5 5 4 4 4 4 4 4 5 5 6 6 7 6 6 7 8 9 9 9 10 10 11 11 11 12 11 12 12 11 11 12 12
6 6 7 7 7 7 7 7 7 7 7 7 7 6 6 6 6 6 6 6 6 6 6 6 6 6 6 6 6 6 6 6 6 6 6 6 6 5 5 5 5 4 4 4 4 4 4 4 4 5 5 5 5 4 4 4 3 3 4 4 4 4 5 5 6 6 6 6 7 8 9 9 9 10 10 11 11 11 11 12 12 12 12 11 11
6 6 6 6 6 6 6 6 7 7 6 6 6 6 6 6 6 6 6 6 6 6 6 6 5 6 5 5 6 6 6 6 6 6 5 5 5 5 5 5 4 4 4 4 4 4 4 4 4 4 4 3 3 3 3 4 3 3 3 3 4 4 4 5 5 5 6 7 7 8 8 9 9 9 10 10 11 11 11 11 11 12 12 12 11
5 6 6 6 6 6 6 6 6 6 5 5 5 5 6 6 5 5 5 5 5 5 5 5 5 5 5 5 5 5 5 5 5 5 5 5 5 5 5 4 4 4 4 4 4 3 3 3 3 3 3 2 2 2 2 2 2 3 3 3 3 3 3 4 4 5 5 6 7 8 8 9 9 9 9 10 10 11 11 11 11 11 11 11 12
5 5 5 6 5 5 5 5 5 5 5 5 5 5 5 5 5 5 5 5 5 5 5 5 5 5 5 5 5 5 5 5 5 5 5 5 5 5 4 4 4 4 3 3 3 3 3 3 3 3 3 2 2 2 1 1 1 2 2 2 2 2 3 3 3 4 4 5 6 7 8 8 9 9 9 10 10 11 11 11 11 11 11 11 12
5 5 5 5 5 4 4 5 4 4 4 5 5 5 5 5 4 4 4 4 4 4 4 4 5 5 5 5 5 5 5 5 5 5 5 5 5 4 3 3 3 3 3 3 3 3 3 3 3 3 3 3 2 2 1 1 1 1 1 1 1 1 2 3 3 3 3 4 5 6 6 7 8 8 8 9 10 10 11 11 11 11 11 11 11
4 4 4 4 4 4 4 4 4 4 4 4 4 4 4 4 4 4 4 4 4 4 4 4 4 4 4 5 5 5 5 5 5 5 5 5 5 4 3 3 3 2 2 3 2 2 3 3 2 2 2 2 1 1 1 1 1 1 1 1 1 0 1 2 3 3 2 2 3 4 5 6 7 8 8 8 9 10 10 10 11 11 11 11 11
4 4 4 4 3 4 4 4 4 4 4 4 4 4 4 4 4 4 4 4 4 4 4 4 4 4 4 4 5 5 5 5 5 5 5 4 4 4 3 3 3 2 2 2 2 2 2 2 2 2 1 0 -0 -0 -0 0 1 1 1 1 1 1 1 1 2 2 2 2 2 3 4 5 6 7 7 8 8 9 10 10 10 10 10 10 10
4 4 4 3 3 3 4 4 4 4 4 4 4 4 4 4 4 4 4 4 4 4 4 4 4 4 4 4 5 5 5 5 5 5 5 4 4 4 3 3 2 2 2 2 1 2 2 2 2 1 1 0 -1 -1 -1 -0 0 1 1 1 2 2 2 1 1 1 2 1 1 2 2 4 5 6 7 7 7 8 9 9 10 10 10 10 10
4 4 3 3 3 3 4 4 4 4 4 4 4 4 4 4 3 3 3 3 4 4 4 4 4 4 4 4 4 4 4 4 4 5 4 4 4 3 3 2 2 2 1 1 1 1 1 1 1 1 1 0 -1 -1 -1 -1 -0 0 0 1 1 2 2 2 2 1 0 -0 -0 1 2 3 4 6 6 6 7 7 8 9 9 10 10 10 10
4 3 3 3 3 3 4 4 4 4 4 4 4 3 3 3 3 3 3 3 3 4 4 4 4 4 4 4 4 4 4 4 4 4 4 4 3 3 2 2 2 1 1 1 1 0 0 0 -0 -0 -0 -0 -1 -2 -1 -1 -1 -1 -1 -0 0 1 2 2 2 1 -0 -1 -1 0 1 2 2 4 6 6 6 7 8 8 9 9 10 10 10
3 3 3 3 3 3 4 4 4 4 3 3 3 3 3 3 3 3 3 3 3 3 3 3 4 4 4 4 4 4 3 3 3 3 4 3 3 3 2 2 2 1 1 1 1 0 -0 -1 -1 -2 -1 -1 -2 -2 -1 -1 -1 -1 -1 -1 -0 1 1 2 1 0 -0 -0 -1 -0 1 2 2 3 5 6 6 7 8 8 9 9 9 10 10
3 3 3 3 3 3 3 4 4 3 3 3 3 3 3 3 3 2 3 3 3 3 3 3 3 3 4 4 3 3 2 2 2 2 3 3 3 2 1 1 1 1 1 1 1 0 -0 -1 -2 -2 -2 -2 -2 -2 -1 -1 -1 -1 -1 -1 -0 0 1 1 1 0 0 0 0 0 1 3 3 4 5 6 6 7 8 8 9 9 9 9 10
3 3 3 3 3 3 3 3 3 3 3 3 3 3 2 2 2 2 2 2 3 3 3 3 3 3 3 3 3 2 2 1 1 1 1 1 1 1 -0 -0 0 1 1 1 0 -0 -1 -1 -2 -2 -2 -2 -2 -1 -1 -1 -1 -1 -1 -1 -1 -1 0 0 0 1 1 0 1 1 2 4 5 5 6 6 7 7 7 8 9 9 9 9 10
3 3 3 2 2 3 3 3 3 3 2 2 2 2 2 2 2 2 2 2 2 2 3 3 3 3 2 2 2 2 1 1 0 -0 -1 -0 -0 -1 -2 -2 -2 -1 -1 -1 -1 -2 -1 -1 -1 -2 -2 -2 -2 -1 -1 -2 -1 -1 -2 -1 -1 -1 -1 -1 -0 0 1 0 1 1 2 4 5 5 6 7 8 7 7 8 9 9 9 9 9
3 2 2 2 2 2 2 2 2 2 2 2 2 2 2 2 2 2 2 2 2 2 2 2 2 2 2 2 2 2 1 -0 -1 -1 -2 -2 -1 -2 -3 -3 -2 -2 -2 -2 -3 -3 -2 -2 -2 -2 -2 -1 -1 -1 -2 -2 -2 -1 -2 -2 -2 -1 -1 -1 -1 -1 -0 0 1 1 2 3 5 5 6 8 8 8 8 9 9 9 9 9 9
2 2 2 2 2 2 2 2 2 2 2 2 2 2 2 2 2 2 2 2 2 2 2 2 2 2 2 2 2 1 1 -0 -1 -1 -2 -2 -2 -2 -3 -2 -2 -3 -3 -3 -3 -3 -3 -3 -2 -2 -1 -1 -2 -2 -2 -2 -2 -2 -1 -2 -2 -2 -2 -2 -2 -2 -1 -0 0 1 1 3 4 5 6 7 8 8 8 9 9 9 9 9 9
2 2 2 2 2 2 2 2 2 2 2 2 2 2 2 2 2 2 2 2 2 2 2 2 2 2 2 2 1 1 0 -0 -1 -2 -2 -2 -2 -2 -2 -2 -2 -3 -3 -3 -3 -3 -3 -3 -2 -2 -2 -1 -1 -2 -2 -1 -2 -2 -2 -2 -2 -2 -1 -2 -2 -2 -2 -1 -1 0 1 2 3 4 5 6 7 8 8 9 9 9 9 9 9
2 2 2 2 2 2 1 1 2 2 2 2 2 2 2 2 2 2 2 2 2 2 2 2 2 2 2 1 1 0 0 -0 -1 -2 -2 -2 -3 -3 -3 -3 -2 -2 -2 -2 -2 -2 -2 -2 -2 -2 -2 -2 -2 -2 -2 -2 -2 -2 -2 -1 -1 -1 -1 -1 -2 -2 -2 -2 -1 -1 0 1 3 4 5 6 6 7 8 9 9 9 9 9 9
2 2 2 2 2 2 1 1 1 1 2 2 2 2 2 2 2 2 2 2 2 2 2 2 2 2 1 1 0 0 0 -0 -1 -2 -2 -2 -3 -3 -3 -3 -2 -2 -2 -2 -2 -2 -2 -2 -2 -2 -2 -2 -2 -2 -1 -2 -2 -2 -1 -1 -1 -1 -1 -1 -1 -1 -2 -2 -2 -1 -0 1 2 3 4 6 6 7 7 8 8 9 9 9 9
2 2 2 2 2 2 2 1 1 1 1 1 1 1 1 1 1 1 2 2 2 1 2 2 2 1 1 1 0 0 0 -0 -1 -2 -2 -2 -2 -3 -3 -2 -2 -2 -2 -2 -2 -2 -2 -2 -2 -2 -2 -2 -2 -2 -1 -1 -2 -1 -1 -1 -1 -1 -1 -1 -1 -1 -2 -2 -2 -2 -1 -0 1 2 3 5 6 7 7 8 8 9 9 9 9
2 2 2 2 2 2 2 2 2 2 1 1 1 1 1 1 1 1 1 1 1 1 1 1 1 1 1 1 0 0 -0 -0 -1 -1 -1 -2 -2 -2 -2 -2 -2 -2 -2 -2 -2 -2 -2 -2 -1 -2 -2 -2 -2 -2 -2 -2 -1 -1 -1 -2 -2 -2 -1 -1 -1 -1 -1 -2 -2 -2 -1 -1 -0 1 2 3 5 6 7 7 8 8 9 9 9
2 2 2 2 2 2 2 2 2 2 1 1 1 1 1 1 1 1 1 1 1 1 1 1 1 1 1 1 0 0 -0 -0 -1 -1 -1 -1 -2 -2 -2 -2 -2 -1 -2 -2 -2 -1 -1 -1 -1 -2 -2 -2 -2 -2 -2 -2 -1 -1 -1 -2 -2 -2 -2 -2 -2 -2 -2 -2 -2 -2 -2 -1 -1 0 2 3 4 5 6 7 7 8 8 8 8
2 2 2 2 2 2 2 2 2 2 1 1 1 1 1 1 1 1 1 1 1 1 1 1 1 1 1 1 1 0 -0 -1 -1 -1 -1 -1 -2 -2 -2 -2 -2 -2 -2 -2 -2 -1 -1 -2 -2 -2 -2 -2 -2 -2 -2 -2 -1 -1 -2 -2 -2 -2 -2 -2 -2 -2 -2 -2 -2 -2 -2 -2 -1 -0 1 2 3 4 5 5 6 6 7 7 7
3 2 2 2 2 2 2 2 2 2 1 1 1 1 1 1 1 1 1 1 0 0 0 0 1 1 1 1 1 0 -0 -1 -1 -1 -2 -2 -2 -2 -2 -2 -2 -2 -2 -2 -2 -2 -2 -2 -2 -2 -2 -2 -2 -2 -2 -2 -2 -2 -2 -2 -2 -2 -2 -2 -2 -2 -2 -2 -1 -1 -1 -1 -1 -1 0 1 2 3 4 5 5 5 5 6 6
3 3 2 2 2 2 2 2 2 2 1 1 1 1 1 1 1 1 1 1 1 0 0 0 0 0 0 0 0 0 -0 -1 -1 -1 -1 -2 -2 -2 -2 -2 -2 -2 -2 -2 -1 -2 -2 -2 -2 -2 -2 -3 -2 -2 -2 -2 -2 -2 -2 -2 -2 -2 -2 -2 -2 -2 -2 -2 -1 -1 -1 -1 -1 -1 -0 0 1 2 3 4 4 4 4 5 5
3 3 3 2 2 2 2 2 2 2 2 1 1 1 1 1 1 1 1 1 1 0 0 0 0 0 0 0 0 -0 -0 -0 -1 -1 -1 -1 -1 -1 -2 -2 -2 -2 -1 -1 -1 -2 -2 -2 -3 -3 -3 -3 -3 -3 -2 -3 -2 -2 -2 -2 -2 -2 -2 -2 -2 -2 -2 -2 -2 -2 -1 -1 -1 -1 -1 -0 0 1 2 3 3 3 3 3 3
3 3 3 2 2 2 2 2 2 2 2 1 1 1 1 1 1 1 1 1 1 0 0 0 0 0 0 0 0 -0 -0 -0 -0 -0 -1 -1 -1 -1 -1 -1 -1 -1 -1 -1 -1 -2 -2 -2 -3 -3 -3 -3 -3 -3 -3 -3 -3 -3 -2 -2 -2 -3 -2 -2 -2 -3 -2 -2 -2 -2 -1 -1 -1 -1 -1 -1 -0 0 1 1 2 2 2 2 2
3 3 2 2 2 2 2 2 2 2 2 2 2 2 1 1 1 1 1 1 1 0 0 0 0 0 0 0 0 -0 -0 -0 -0 -0 -0 -1 -1 -1 -1 -1 -1 -1 -1 -1 -1 -2 -2 -3 -3 -3 -3 -3 -3 -3 -3 -3 -2 -3 -3 -3 -3 -3 -3 -2 -2 -2 -2 -2 -2 -2 -2 -1 -1 -1 -1 -1 -1 -1 -0 0 1 1 1 1 1
3 3 2 2 2 2 2 2 2 2 2 2 2 2 1 1 1 1 1 1 1 0 0 0 0 0 0 0 -0 -0 -0 -0 -0 -0 -0 -0 -0 -1 -1 -1 -1 -1 -1 -1 -1 -2 -2 -3 -3 -3 -3 -3 -3 -3 -3 -3 -2 -2 -2 -2 -3 -3 -3 -2 -2 -2 -2 -2 -2 -2 -2 -1 -1 -1 -1 -1 -1 -1 -1 -1 -0 0 1 1 0
3 3 3 3 2 2 2 2 2 2 2 2 2 2 1 1 1 1 1 1 1 0 0 0 -0 -0 -0 -0 -0 -0 -0 -0 -0 -0 -0 -0 -0 -0 -0 -0 -0 -1 -1 -2 -2 -2 -2 -3 -3 -3 -3 -3 -3 -3 -3 -3 -3 -2 -2 -2 -2 -2 -2 -2 -2 -2 -2 -2 -2 -2 -2 -2 -1 -1 -1 -1 -1 -1 -1 -1 -1 -0 -0 -0 0
3 3 3 3 2 2 2 2 2 2 2 2 2 2 2 2 1 1 1 1 1 0 0 0 -0 -0 -0 -0 -0 -1 -0 -0 -0 -0 -0 -0 -0 -0 -0 -0 -0 -1 -1 -2 -2 -3 -3 -3 -3 -3 -3 -3 -3 -3 -3 -3 -3 -3 -2 -2 -2 -2 -2 -2 -2 -2 -2 -2 -2 -2 -2 -2 -2 -1 -1 -1 -1 -1 -1 -1 -1 -1 -1 -1 -1
3 2 2 2 2 2 2 2 2 2 2 2 2 2 2 2 2 1 1 1 1 1 0 0 0 -0 -0 -0 -0 -1 -1 -1 -0 -0 -0 -0 -0 -0 -0 -0 -1 -1 -2 -2 -2 -3 -3 -3 -3 -3 -3 -3 -3 -3 -2 -2 -3 -3 -2 -2 -2 -2 -2 -2 -2 -2 -2 -2 -2 -2 -2 -2 -2 -2 -1 -1 -1 -1 -1 -1 -1 -1 -1 -1 -1
2 2 2 2 2 2 2 2 2 2 2 2 2 2 2 2 2 2 1 1 1 1 1 0 0 -0 -0 -0 -0 -0 -1 -1 -1 -0 -0 -0 -0 -0 -1 -1 -1 -1 -2 -2 -3 -3 -3 -3 -3 -3 -3 -3 -3 -3 -2 -2 -2 -2 -2 -2 -2 -2 -2 -2 -2 -2 -2 -2 -2 -2 -2 -2 -2 -2 -2 -1 -1 -1 -1 -1 -1 -1 -1 -1 -1
3 2 2 2 2 2 2 2 2 2 2 2 2 2 2 2 2 2 2 1 1 1 1 0 0 0 -0 -0 -0 -0 -0 -0 -0 -0 -0 -0 -0 -0 -1 -1 -1 -1 -2 -2 -3 -3 -3 -3 -3 -3 -3 -3 -3 -3 -3 -2 -2 -2 -2 -2 -2 -2 -2 -2 -2 -2 -2 -2 -2 -2 -2 -2 -2 -2 -2 -2 -2 -2 -1 -1 -1 -1 -2 -1 -1
3 2 2 2 2 2 2 2 2 2 2 2 2 2 2 2 2 2 2 2 1 1 1 1 0 0 0 0 0 0 -0 -0 -0 -0 -0 -0 -0 -1 -1 -1 -1 -1 -2 -2 -2 -3 -3 -3 -3 -3 -3 -3 -3 -3 -3 -3 -2 -2 -2 -2 -2 -2 -2 -2 -2 -2 -2 -2 -2 -2 -2 -2 -2 -2 -2 -2 -2 -2 -2 -1 -1 -1 -2 -2 -2
3 3 2 2 2 2 2 2 2 2 2 2 2 2 2 2 2 2 2 2 2 1 1 1 1 0 0 0 0 0 0 -0 -0 -1 -1 -1 -1 -1 -1 -1 -1 -1 -2 -2 -2 -3 -3 -3 -3 -3 -3 -3 -3 -3 -3 -3 -2 -2 -2 -2 -2 -2 -2 -2 -2 -2 -2 -2 -2 -2 -2 -2 -2 -2 -2 -2 -2 -2 -2 -2 -1 -1 -1 -1 -2
3 3 3 3 3 2 2 2 2 2 2 2 2 2 2 2 2 2 2 2 2 1 1 1 1 1 1 1 1 0 0 -0 -0 -1 -1 -1 -1 -1 -1 -1 -1 -1 -2 -2 -2 -2 -3 -3 -3 -3 -3 -3 -3 -3 -3 -3 -2 -2 -2 -2 -2 -2 -2 -2 -2 -2 -2 -2 -2 -2 -2 -2 -2 -2 -2 -2 -2 -2 -2 -2 -2 -1 -1 -1 -1
3 3 3 3 3 3 2 2 2 2 2 2 2 2 2 2 2 2 2 2 2 1 1 1 1 1 1 1 1 1 0 0 -0 -1 -1 -1 -1 -1 -1 -1 -1 -1 -2 -2 -2 -2 -3 -3 -3 -3 -3 -3 -3 -3 -3 -3 -3 -3 -3 -3 -2 -3 -3 -3 -3 -2 -2 -2 -2 -2 -2 -2 -2 -2 -2 -2 -2 -2 -2 -2 -2 -1 -1 -1 -1
3 3 3 3 3 3 3 3 3 2 2 2 2 2 2 2 2 2 2 2 2 2 1 1 1 1 1 1 1 1 0 0 0 -0 -1 -1 -1 -1 -1 -1 -1 -2 -2 -2 -2 -2 -2 -3 -3 -3 -4 -4 -4 -4 -3 -3 -3 -3 -3 -3 -2 -3 -3 -3 -3 -3 -3 -2 -2 -2 -2 -2 -2 -2 -2 -2 -2 -2 -2 -2 -2 -1 -1 -1 -1
3 3 3 3 3 3 3 3 3 3 3 3 2 2 2 2 2 2 2 2 2 2 2 1 1 1 1 1 1 1 1 0 0 0 -0 -0 -1 -1 -1 -1 -1 -1 -2 -2 -2 -2 -2 -2 -3 -3 -3 -3 -4 -4 -4 -4 -3 -3 -3 -3 -3 -3 -3 -3 -3 -3 -3 -3 -3 -2 -2 -2 -2 -2 -2 -2 -2 -2 -2 -2 -2 -2 -1 -1 -1
3 3 3 3 3 3 3 3 3 3 3 3 3 2 2 2 2 2 2 2 2 2 2 2 1 1 1 1 1 1 1 1 1 0 0 -0 -0 -0 -1 -1 -1 -1 -1 -1 -2 -2 -2 -2 -2 -2 -3 -3 -3 -4 -4 -4 -4 -4 -3 -3 -3 -3 -3 -3 -3 -3 -3 -3 -3 -3 -2 -2 -2 -2 -2 -2 -2 -2 -2 -2 -2 -2 -2 -1 -1
2 3 3 3 3 3 3 3 3 3 3 3 3 3 2 2 2 2 2 2 2 2 2 2 1 1 1 1 1 1 1 1 1 1 0 0 0 -0 -0 -0 -1 -1 -1 -1 -1 -1 -2 -2 -2 -2 -2 -2 -3 -3 -3 -4 -4 -4 -4 -4 -3 -3 -3 -3 -3 -3 -3 -3 -3 -3 -3 -3 -2 -2 -2 -2 -2 -2 -2 -2 -2 -2 -2 -2 -2
2 2 3 3 2 3 3 3 3 3 3 3 3 3 2 2 2 2 2 2 2 2 2 2 2 1 1 1 1 1 1 1 1 1 1 1 0 0 0 -0 -0 -1 -1 -1 -1 -1 -1 -1 -2 -2 -2 -2 -2 -3 -3 -3 -3 -4 -4 -4 -3 -3 -3 -3 -3 -3 -3 -3 -3 -3 -3 -3 -3 -3 -2 -2 -2 -2 -2 -2 -2 -2 -2 -2 -2
2 2 2 2 2 3 3 3 3 3 3 3 3 3 3 3 3 2 2 2 2 2 2 2 2 2 1 1 1 1 1 1 1 1 1 1 1 1 0 0 -0 -0 -1 -1 -1 -1 -1 -1 -1 -2 -2 -2 -2 -2 -3 -3 -3 -3 -4 -4 -4 -3 -3 -3 -3 -3 -3 -2 -2 -3 -3 -3 -3 -3 -3 -2 -2 -2 -2 -2 -2 -2 -2 -2 -2
3 3 2 3 3 3 3 3 3 3 3 3 3 3 3 3 3 2 2 2 2 2 2 2 2 2 2 1 1 1 1 1 1 1 1 1 1 1 1 0 0 0 -0 -1 -1 -1 -1 -1 -1 -1 -2 -2 -2 -2 -2 -3 -3 -3 -3 -3 -4 -3 -3 -3 -3 -3 -3 -2 -2 -2 -2 -3 -3 -3 -3 -2 -2 -2 -2 -2 -2 -2 -2 -2 -2
3 3 3 3 3 3 3 3 3 3 3 3 3 3 3 3 3 3 2 2 2 2 2 2 2 2 2 2 2 1 1 1 1 1 1 1 1 1 1 1 1 0 0 -0 -0 -1 -1 -1 -1 -1 -2 -2 -2 -2 -2 -2 -3 -3 -3 -3 -3 -3 -3 -3 -3 -3 -2 -2 -2 -2 -2 -2 -2 -2 -3 -3 -2 -2 -2 -2 -2 -2 -2 -2 -2
3 3 3 3 3 3 3 3 3 3 3 3 3 3 3 3 3 3 3 3 2 2 2 2 2 2 2 2 2 2 1 1 1 1 1 1 1 1 1 1 1 1 0 0 0 -0 -0 -1 -1 -1 -1 -2 -2 -2 -2 -2 -2 -3 -3 -3 -3 -3 -3 -3 -3 -3 -2 -2 -2 -2 -2 -2 -2 -2 -2 -2 -2 -2 -2 -2 -2 -2 -2 -2 -2
Height
1554 1554 1554 1553 1553 1553 1553 1553 1553 1554 1554 1554 1554 1554 1554 1554 1554 1555 1555 1555 1554 1554 1553 1552 1551 1550 1548 1547 1545 1544 1542 1540 1539 1537 1535 1533 1531 1529 1528 1526 1525 1523 1521 1520 1518 1516 1514 1511 1509 1507 1505 1503 1501 1499 1497 1496 1494 1493 1492 1490 1489 1488 1487 1485 1481 1478 1476 1477 1477 1475 1476 1477 1477 1477 1477 1477 1479 1479 1479 1481 1481 1482 1483 1484 1486
1555 1554 1554 1554 1554 1554 1554 1554 1554 1554 1554 1554 1555 1555 1555 1555 1555 1556 1556 1555 1555 1554 1553 1552 1551 1550 1548 1547 1546 1544 1542 1540 1538 1536 1534 1532 1531 1529 1527 1525 1524 1522 1520 1519 1517 1515 1513 1511 1509 1506 1504 1502 1500 1498 1496 1494 1492 1490 1489 1488 1486 1486 1484 1482 1479 1476 1473 1473 1474 1473 1472 1472 1473 1473 1474 1473 1474 1476 1476 1477 1478 1478 1479 1479 1481
1555 1555 1555 1555 1555 1555 1555 1555 1555 1555 1556 1556 1556 1556 1556 1556 1557 1557 1556 1556 1556 1555 1554 1553 1551 1550 1548 1547 1546 1544 1542 1540 1538 1536 1534 1532 1530 1528 1527 1525 1523 1521 1520 1518 1516 1514 1512 1510 1508 1505 1503 1501 1499 1497 1495 1492 1490 1488 1487 1485 1484 1483 1482 1480 1477 1473 1470 1468 1469 1470 1469 1468 1468 1469 1469 1469 1470 1471 1472 1473 1474 1474 1474 1475 1475
1555 1555 1556 1555 1556 1556 1556 1556 1556 1557 1557 1557 1557 1557 1557 1557 1557 1557 1557 1557 1556 1555 1554 1553 1551 1550 1549 1547 1546 1544 1542 1540 1538 1536 1534 1532 1530 1529 1527 1525 1523 1521 1520 1518 1516 1513 1511 1509 1507 1504 1502 1500 1498 1495 1493 1491 1488 1486 1484 1483 1481 1480 1478 1477 1475 1472 1468 1464 1464 1466 1466 1465 1464 1464 1465 1465 1466 1466 1467 1468 1469 1470 1470 1470 1471
1556 1556 1556 1556 1556 1557 1557 1557 1558 1558 1558 1558 1558 1558 1558 1558 1558 1558 1558 1557 1556 1555 1554 1553 1552 1550 1549 1548 1546 1545 1543 1541 1539 1537 1535 1533 1531 1529 1527 1525 1523 1521 1520 1518 1515 1513 1511 1508 1506 1503 1501 1499 1496 1494 1492 1489 1487 1485 1482 1480 1478 1476 1475 1474 1472 1469 1466 1462 1459 1460 1461 1461 1460 1460 1460 1461 1461 1462 1462 1463 1464 1465 1465 1465 1467
1557 1557 1557 1557 1557 1558 1558 1558 1559 1559 1559 1559 1559 1559 1558 1559 1559 1558 1558 1557 1556 1556 1554 1553 1552 1551 1550 1549 1547 1545 1543 1541 1538 1536 1534 1532 1530 1528 1526 1524 1523 1521 1519 1517 1515 1513 1510 1508 1506 1503 1500 1498 1495 1493 1490 1488 1485 1483 1481 1478 1475 1473 1471 1469 1468 1466 1463 1459 1456 1454 1455 1456 1456 1455 1456 1456 1456 1457 1457 1458 1459 1459 1459 1460 1462
1557 1558 1558 1558 1558 1559 1559 1560 1560 1560 1560 1560 1560 1560 1559 1559 1559 1559 1559 1558 1557 1556 1555 1554 1553 1552 1551 1549 1547 1545 1543 1541 1538 1536 1534 1532 1529 1527 1525 1524 1522 1520 1518 1516 1514 1512 1510 1508 1505 1502 1500 1497 1495 1492 1489 1486 1484 1482 1479 1476 1473 1470 1467 1465 1464 1462 1459 1456 1453 1450 1449 1450 1451 1451 1451 1451 1451 1451 1452 1453 1453 1453 1454 1455 1456
1558 1559 1559 1559 1560 1560 1561 1561 1561 1561 1561 1561 1561 1561 1560 1560 1560 1560 1560 1559 1558 1557 1556 1555 1554 1553 1551 1550 1548 1546 1543 1541 1538 1536 1533 1531 1529 1527 1525 1523 1521 1519 1517 1515 1513 1511 1509 1507 1505 1502 1500 1497 1494 1492 1489 1486 1483 1480 1477 1475 1472 1469 1465 1462 1459 1457 1455 1452 1450 1447 1445 1444 1444 1445 1446 1446 1445 1445 1446 1447 1447 1447 1448 1449 1450
1559 1560 1560 1561 1561 1561 1562 1562 1562 1563 1562 1562 1562 1562 1562 1562 1562 1561 1561 1560 1559 1558 1557 1556 1555 1554 1552 1551 1549 1546 1544 1541 1538 1536 1534 1532 1529 1527 1525 1523 1521 1519 1517 1514 1512 1509 1507 1505 1503 1501 1499 1496 1493 1491 1489 1486 1482 1478 1475 1472 1469 1466 1463 1460 1457 1453 1450 1448 1446 1444 1441 1439 1438 1439 1441 1442 1441 1441 1442 1442 1441 1441 1443 1444 1444
1560 1561 1561 1562 1562 1563 1564 1564 1564 1564 1564 1563 1563 1563 1563 1563 1563 1563 1562 1561 1560 1559 1558 1557 1556 1554 1553 1551 1549 1546 1544 1542 1540 1538 1535 1533 1530 1528 1526 1524 1521 1519 1516 1514 1511 1509 1506 1504 1501 1499 1496 1493 1491 1488 1486 1484 1481 1478 1475 1471 1467 1463 1460 1457 1454 1451 1447 1444 1441 1440 1437 1434 1433 1434 1435 1436 1437 1437 1437 1436 1435 1436 1437 1437 1437
1560 1561 1562 1563 1564 1565 1565 1565 1565 1565 1565 1565 1565 1565 1565 1565 1564 1564 1563 1562 1561 1560 1559 1557 1556 1554 1553 1551 1549 1547 1544 1543 1541 1539 1536 1534 1531 1529 1526 1524 1522 1519 1516 1514 1511 1509 1506 1503 1500 1497 1493 1490 1488 1484 1481 1479 1477 1475 1473 1470 1466 1462 1458 1453 1450 1448 1445 1440 1437 1435 1433 1429 1428 1429 1428 1429 1432 1432 1431 1431 1430 1431 1431 1430 1429
1561 1562 1563 1564 1565 1566 1566 1566 1566 1566 1566 1566 1566 1566 1566 1566 1565 1564 1563 1562 1561 1560 1559 1558 1556 1555 1553 1551 1549 1547 1545 1543 1541 1539 1536 1534 1532 1529 1527 1524 1522 1519 1517 1514 1511 1508 1505 1502 1499 1496 1493 1489 1486 1482 1478 1475 1472 1469 1467 1465 1462 1459 1456 1451 1447 1443 1440 1436 1432 1430 1428 1425 1423 1423 1423 1423 1425 1426 1426 1425 1425 1425 1424 1423 1423
1561 1563 1565 1566 1566 1566 1567 1567 1567 1567 1567 1567 1567 1568 1567 1566 1566 1565 1564 1563 1562 1561 1560 1559 1557 1556 1554 1552 1550 1548 1546 1543 1541 1539 1536 1534 1532 1529 1527 1524 1522 1519 1517 1514 1511 1508 1505 1501 1498 1495 1492 1488 1485 1480 1476 1471 1467 1464 1461 1458 1456 1453 1451 1448 1444 1440 1436 1432 1428 1424 1422 1421 1418 1416 1418 1419 1419 1419 1419 1419 1420 1419 1418 1417 1417
1561 1564 1566 1566 1567 1567 1568 1568 1568 1568 1568 1568 1569 1568 1568 1567 1566 1566 1565 1564 1563 1562 1561 1560 1558 1556 1554 1552 1550 1548 1546 1543 1541 1538 1536 1534 1532 1529 1527 1525 1522 1520 1517 1514 1511 1507 1504 1501 1497 1494 1491 1488 1484 1480 1475 1469 1464 1460 1456 1453 1450 1447 1445 1442 1439 1435 1431 1428 1424 1419 1417 1416 1412 1410 1412 1413 1412 1412 1413 1414 1414 1414 1414 1413 1414
1562 1564 1566 1567 1567 1568 1568 1569 1569 1569 1569 1569 1569 1569 1568 1568 1567 1566 1566 1565 1564 1563 1562 1561 1559 1557 1555 1553 1551 1548 1546 1543 1541 1538 1536 1534 1531 1529 1527 1525 1522 1520 1517 1514 1511 1507 1504 1501 1497 1494 1491 1487 1484 1480 1474 1468 1463 1458 1454 1450 1446 1442 1439 1436 1432 1429 1425 1422 1418 1413 1410 1408 1406 1404 1404 1405 1405 1405 1407 1408 1409 1409 1409 1409 1410
1563 1565 1566 1567 1568 1568 1569 1569 1569 1570 1570 1570 1570 1569 1569 1569 1568 1567 1566 1566 1565 1564 1563 1562 1560 1558 1556 1554 1551 1549 1546 1544 1541 1538 1536 1533 1531 1528 1526 1524 1522 1519 1516 1514 1511 1508 1504 1501 1498 1494 1491 1487 1484 1479 1474 1468 1462 1457 1452 1447 1442 1437 1433 1430 1426 1422 1418 1414 1410 1406 1402 1399 1398 1397 1396 1397 1397 1398 1401 1402 1402 1403 1404 1404 1404
1564 1565 1566 1567 1568 1569 1569 1570 1570 1570 1570 1570 1570 1570 1570 1569 1569 1568 1568 1567 1566 1565 1564 1562 1561 1559 1557 1554 1552 1549 1547 1544 1541 1538 1536 1533 1530 1528 1526 1523 1521 1519 1516 1513 1511 1508 1505 1502 1498 1495 1491 1487 1483 1478 1472 1467 1461 1455 1450 1444 1439 1433 1428 1423 1418 1414 1410 1406 1401 1397 1393 1390 1388 1387 1388 1388 1389 1392 1395 1393 1393 1397 1398 1397 1397
1564 1566 1567 1568 1569 1569 1570 1570 1570 1571 1571 1571 1571 1571 1571 1570 1570 1569 1569 1568 1567 1566 1565 1564 1562 1560 1557 1555 1552 1550 1547 1545 1542 1539 1536 1533 1530 1528 1526 1524 1521 1519 1516 1513 1511 1508 1505 1502 1499 1495 1491 1487 1482 1477 1472 1466 1460 1454 1448 1442 1436 1430 1423 1417 1410 1404 1400 1396 1392 1388 1384 1381 1378 1377 1378 1379 1381 1384 1385 1383 1386 1391 1392 1390 1392
1565 1566 1567 1568 1569 1570 1570 1571 1571 1571 1572 1572 1572 1572 1571 1571 1571 1570 1570 1569 1568 1567 1566 1565 1563 1561 1558 1556 1553 1551 1548 1545 1543 1540 1537 1534 1531 1529 1527 1525 1522 1519 1517 1514 1511 1509 1505 1502 1499 1496 1491 1486 1481 1476 1471 1466 1460 1454 1448 1442 1435 1428 1421 1414 1407 1400 1393 1388 1384 1380 1377 1374 1371 1368 1368 1370 1372 1375 1375 1376 1381 1384 1384 1385 1388
1565 1567 1568 1569 1570 1570 1571 1571 1571 1572 1572 1572 1572 1572 1572 1572 1572 1572 1571 1571 1570 1569 1567 1565 1564 1561 1559 1557 1554 1551 1549 1546 1543 1540 1538 1535 1532 1530 1528 1525 1522 1520 1518 1515 1512 1509 1506 1502 1499 1495 1491 1486 1481 1476 1471 1466 1461 1455 1449 1442 1435 1428 1421 1413 1406 1400 1392 1385 1380 1375 1371 1368 1365 1362 1361 1361 1363 1365 1368 1370 1374 1376 1378 1380 1382
1566 1567 1568 1569 1570 1571 1571 1572 1572 1573 1573 1573 1573 1573 1573 1573 1573 1573 1572 1572 1571 1570 1568 1566 1564 1562 1560 1558 1555 1552 1550 1547 1544 1541 1539 1537 1534 1531 1529 1526 1524 1521 1519 1516 1513 1510 1506 1503 1499 1495 1490 1485 1480 1475 1470 1466 1461 1455 1449 1443 1436 1429 1422 1413 1405 1398 1391 1384 1378 1372 1367 1363 1360 1358 1356 1356 1357 1359 1362 1364 1367 1370 1372 1375 1376
1566 1568 1569 1570 1570 1571 1572 1572 1573 1573 1573 1573 1574 1574 1574 1574 1574 1573 1573 1572 1571 1570 1569 1567 1565 1563 1561 1559 1556 1553 1550 1547 1545 1542 1540 1537 1535 1532 1530 1528 1525 1522 1519 1516 1513 1510 1507 1503 1499 1495 1490 1485 1480 1475 1470 1465 1460 1455 1449 1442 1436 1429 1421 1414 1406 1397 1389 1382 1376 1370 1365 1360 1356 1354 1353 1353 1353 1355 1357 1359 1362 1365 1367 1369 1372
1567 1568 1569 1570 1571 1572 1572 1573 1573 1573 1574 1574 1574 1575 1575 1575 1574 1574 1573 1572 1571 1570 1569 1567 1565 1563 1561 1559 1557 1554 1551 1548 1546 1543 1540 1538 1536 1533 1531 1529 1526 1523 1520 1517 1514 1511 1508 1504 1499 1495 1490 1485 1481 1475 1470 1465 1459 1454 1448 1441 1434 1427 1420 1414 1406 1398 1389 1382 1375 1368 1363 1358 1354 1351 1350 1350 1350 1351 1353 1355 1358 1361 1363 1365 1368
1567 1568 1569 1570 1571 1572 1572 1573 1574 1574 1574 1575 1575 1575 1575 1575 1575 1574 1573 1573 1571 1570 1569 1567 1565 1563 1561 1559 1557 1555 1552 1549 1547 1544 1541 1539 1536 1534 1532 1529 1527 1524 1521 1518 1515 1512 1508 1504 1500 1495 1491 1486 1481 1476 1470 1465 1459 1454 1447 1440 1433 1426 1419 1413 1407 1398 1389 1382 1375 1368 1362 1357 1354 1350 1348 1347 1347 1348 1350 1352 1354 1357 1359 1361 1363
1567 1568 1569 1570 1571 1572 1573 1574 1574 1574 1575 1575 1575 1576 1575 1575 1575 1574 1574 1573 1571 1570 1569 1567 1566 1564 1562 1559 1557 1555 1553 1550 1547 1545 1542 1539 1537 1534 1532 1530 1527 1524 1522 1519 1516 1513 1509 1505 1501 1496 1491 1486 1481 1476 1470 1465 1460 1454 1447 1440 1433 1427 1420 1414 1407 1399 1391 1383 1376 1370 1364 1359 1355 1352 1349 1346 1345 1346 1347 1349 1351 1354 1355 1357 1358
1567 1568 1569 1570 1571 1572 1573 1574 1574 1575 1575 1575 1576 1576 1576 1575 1575 1574 1574 1573 1571 1570 1569 1567 1566 1564 1562 1560 1558 1555 1553 1551 1548 1545 1542 1539 1537 1535 1532 1530 1528 1525 1522 1520 1517 1513 1509 1505 1500 1496 1491 1487 1482 1477 1472 1467 1461 1454 1448 1441 1435 1428 1422 1415 1409 1401 1394 1387 1380 1373 1367 1361 1357 1354 1351 1347 1345 1344 1345 1347 1348 1351 1352 1354 1356
1567 1568 1569 1570 1571 1572 1573 1574 1574 1575 1575 1576 1576 1576 1576 1575 1575 1574 1574 1573 1571 1570 1569 1567 1566 1564 1562 1560 1558 1556 1554 1551 1548 1545 1542 1540 1538 1535 1533 1531 1528 1525 1522 1520 1516 1512 1508 1505 1501 1497 1492 1487 1483 1478 1473 1467 1461 1455 1449 1443 1438 1432 1426 1420 1413 1407 1400 1392 1384 1378 1371 1366 1361 1357 1353 1349 1346 1344 1345 1346 1347 1349 1351 1353 1355
1566 1568 1569 1570 1571 1572 1573 1574 1575 1575 1575 1576 1576 1576 1576 1575 1575 1574 1574 1573 1571 1570 1569 1567 1566 1564 1562 1561 1558 1556 1554 1552 1549 1546 1543 1541 1539 1536 1534 1532 1529 1526 1523 1520 1516 1513 1509 1505 1501 1496 1491 1486 1482 1478 1473 1468 1463 1458 1452 1446 1441 1436 1430 1423 1417 1410 1404 1397 1390 1384 1377 1371 1365 1359 1356 1352 1349 1346 1346 1347 1347 1349 1351 1352 1354
1566 1568 1569 1570 1571 1572 1573 1574 1574 1575 1575 1575 1575 1575 1575 1575 1575 1574 1573 1572 1571 1570 1569 1568 1566 1564 1562 1561 1558 1556 1554 1552 1549 1547 1545 1543 1540 1538 1535 1533 1530 1527 1525 1521 1517 1513 1509 1505 1500 1496 1491 1487 1483 1479 1474 1470 1466 1461 1455 1450 1444 1438 1432 1425 1419 1414 1408 1402 1395 1389 1382 1375 1368 1363 1359 1356 1352 1350 1349 1350 1350 1350 1352 1353 1354
1566 1567 1568 1570 1571 1572 1573 1574 1574 1574 1575 1575 1575 1575 1575 1575 1574 1574 1573 1572 1571 1570 1569 1567 1566 1565 1563 1561 1559 1557 1555 1553 1551 1548 1546 1544 1542 1539 1537 1534 1531 1529 1526 1522 1517 1513 1509 1505 1501 1498 1494 1490 1486 1482 1477 1473 1469 1464 1458 1453 1448 1442 1436 1430 1425 1420 1414 1408 1402 1395 1388 1381 1375 1370 1365 1361 1358 1356 1355 1354 1354 1354 1354 1355 1356
1565 1567 1568 1569 1570 1571 1572 1573 1573 1574 1574 1574 1575 1575 1575 1575 1574 1573 1573 1572 1571 1570 1569 1567 1566 1564 1563 1561 1559 1558 1555 1553 1551 1549 1547 1545 1543 1540 1538 1535 1532 1529 1526 1522 1518 1514 1510 1506 1503 1500 1496 1493 1489 1485 1481 1477 1472 1467 1462 1457 1452 1447 1441 1436 1430 1425 1420 1414 1408 1402 1395 1389 1384 1379 1374 1370 1366 1363 1361 1359 1359 1358 1359 1360 1361
1564 1566 1567 1568 1569 1570 1571 1572 1573 1573 1573 1574 1574 1574 1574 1574 1574 1573 1573 1572 1571 1570 1568 1567 1566 1564 1563 1561 1559 1558 1556 1554 1552 1550 1548 1545 1543 1540 1538 1535 1532 1529 1526 1522 1518 1515 1511 1508 1505 1502 1499 1495 1492 1488 1485 1480 1476 1471 1466 1461 1456 1451 1446 1441 1437 1431 1426 1420 1414 1408 1403 1398 1393 1388 1383 1378 1374 1371 1367 1366 1365 1365 1365 1366 1366
1564 1565 1566 1567 1568 1569 1570 1571 1572 1572 1573 1573 1573 1574 1574 1574 1574 1573 1572 1571 1570 1569 1568 1567 1566 1564 1562 1561 1559 1558 1556 1554 1552 1550 1548 1546 1544 1541 1538 1536 1533 1529 1526 1522 1519 1516 1513 1510 1507 1504 1501 1498 1494 1491 1487 1484 1480 1475 1470 1466 1461 1457 1452 1447 1442 1436 1431 1426 1421 1416 1411 1405 1400 1396 1391 1386 1383 1379 1375 1373 1372 1372 1372 1372 1373
1563 1564 1565 1566 1567 1568 1569 1570 1571 1571 1572 1572 1573 1573 1573 1573 1573 1573 1572 1571 1570 1569 1568 1567 1565 1564 1562 1561 1559 1558 1556 1554 1553 1551 1549 1546 1544 1541 1539 1537 1533 1530 1526 1523 1520 1517 1515 1512 1509 1506 1503 1500 1497 1493 1489 1486 1483 1479 1474 1470 1466 1462 1457 1452 1447 1441 1437 1432 1427 1423 1418 1413 1408 1404 1399 1395 1391 1388 1384 1382 1380 1379 1379 1379 1379
1562 1563 1564 1566 1567 1567 1568 1569 1570 1570 1571 1572 1572 1572 1572 1572 1572 1572 1571 1571 1570 1569 1568 1567 1565 1564 1563 1561 1560 1558 1556 1555 1553 1551 1549 1547 1544 1542 1539 1536 1533 1529 1526 1524 1521 1519 1516 1514 1511 1508 1505 1502 1499 1495 1492 1488 1485 1482 1478 1474 1470 1466 1462 1457 1453 1448 1443 1438 1433 1429 1426 1421 1417 1413 1409 1404 1399 1396 1393 1391 1389 1387 1386 1386 1385
1561 1562 1563 1564 1566 1566 1567 1568 1569 1569 1570 1571 1571 1571 1571 1571 1571 1571 1570 1570 1569 1568 1568 1567 1565 1564 1562 1561 1559 1558 1556 1555 1553 1551 1549 1547 1544 1542 1539 1536 1533 1530 1528 1525 1523 1520 1518 1515 1513 1510 1507 1504 1501 1498 1494 1491 1488 1485 1482 1478 1474 1470 1466 1462 1458 1454 1449 1444 1440 1436 1432 1429 1425 1421 1416 1412 1408 1405 1402 1401 1399 1397 1395 1394 1393
1559 1561 1562 1563 1565 1566 1567 1567 1568 1569 1569 1570 1570 1570 1571 1570 1570 1570 1570 1569 1568 1568 1567 1566 1565 1564 1562 1561 1559 1558 1557 1555 1553 1551 1549 1547 1545 1542 1539 1536 1534 1531 1529 1527 1524 1522 1519 1517 1515 1512 1509 1506 1503 1500 1497 1493 1490 1487 1484 1481 1478 1474 1470 1467 1463 1459 1454 1450 1446 1443 1439 1435 1432 1428 1424 1420 1417 1414 1412 1409 1408 1406 1405 1403 1402
1558 1560 1561 1562 1564 1565 1566 1566 1567 1568 1568 1569 1569 1569 1569 1569 1569 1569 1569 1568 1568 1567 1566 1565 1564 1563 1562 1561 1559 1558 1556 1555 1553 1551 1549 1547 1545 1542 1540 1538 1535 1533 1530 1528 1526 1523 1521 1519 1516 1514 1511 1508 1505 1502 1499 1496 1493 1490 1487 1484 1481 1477 1474 1470 1467 1463 1459 1455 1452 1449 1446 1442 1439 1435 1432 1428 1425 1423 1420 1418 1416 1415 1413 1412 1411
1557 1559 1560 1561 1562 1564 1564 1565 1566 1567 1567 1567 1568 1568 1568 1568 1568 1568 1568 1567 1567 1566 1565 1564 1563 1563 1561 1560 1559 1557 1556 1554 1553 1551 1549 1547 1545 1543 1541 1539 1537 1534 1532 1529 1527 1524 1522 1520 1518 1515 1513 1510 1507 1504 1501 1498 1495 1492 1489 1486 1483 1480 1477 1474 1470 1467 1464 1460 1457 1455 1452 1449 1446 1442 1439 1436 1433 1431 1428 1426 1425 1423 1421 1420 1419
1556 1558 1559 1560 1561 1562 1563 1564 1565 1565 1566 1566 1567 1567 1567 1567 1567 1567 1567 1566 1566 1565 1564 1563 1562 1561 1560 1559 1558 1557 1555 1554 1552 1551 1549 1547 1545 1544 1542 1540 1537 1535 1533 1530 1528 1526 1523 1521 1519 1517 1514 1512 1509 1507 1504 1501 1498 1494 1491 1489 1486 1483 1481 1478 1475 1472 1469 1466 1463 1460 1457 1454 1452 1449 1446 1443 1441 1439 1436 1434 1433 1431 1430 1429 1428
1555 1557 1558 1559 1560 1561 1562 1563 1563 1564 1564 1565 1565 1565 1566 1566 1566 1566 1565 1565 1565 1564 1563 1562 1561 1560 1559 1558 1557 1556 1555 1553 1552 1550 1549 1547 1545 1544 1542 1540 1538 1536 1534 1532 1529 1527 1525 1523 1520 1518 1516 1513 1511 1508 1506 1503 1500 1497 1494 1491 1489 1486 1484 1481 1479 1476 1473 1470 1467 1465 1462 1460 1457 1455 1452 1450 1448 1446 1444 1442 1440 1439 1437 1436 1435
1555 1556 1557 1558 1559 1560 1560 1561 1562 1562 1563 1563 1564 1564 1564 1564 1564 1564 1564 1564 1563 1563 1562 1561 1560 1559 1558 1557 1556 1555 1554 1553 1551 1550 1548 1547 1546 1544 1542 1541 1539 1537 1535 1533 1530 1528 1526 1524 1522 1519 1517 1515 1512 1510 1507 1505 1502 1499 1496 1493 1491 1489 1487 1484 1482 1480 1477 1474 1472 1469 1467 1464 1462 1460 1458 1456 1454 1452 1450 1448 1446 1445 1444 1443 1442
1553 1555 1556 1557 1557 1558 1559 1560 1560 1561 1561 1562 1562 1562 1563 1563 1563 1563 1563 1562 1562 1561 1561 1560 1559 1558 1557 1556 1555 1554 1553 1552 1550 1549 1548 1547 1545 1544 1542 1541 1539 1537 1535 1533 1531 1529 1527 1525 1523 1521 1519 1516 1514 1511 1509 1506 1504 1501 1498 1496 1493 1491 1489 1487 1485 1483 1480 1478 1476 1473 1471 1469 1466 1464 1463 1460 1459 1457 1456 1454 1452 1451 1450 1449 1448
1552 1553 1554 1555 1556 1557 1557 1558 1559 1559 1560 1560 1561 1561 1561 1561 1561 1561 1561 1561 1561 1560 1560 1559 1558 1557 1556 1555 1554 1553 1552 1551 1550 1548 1547 1546 1545 1543 1542 1541 1539 1537 1535 1533 1532 1530 1528 1526 1524 1522 1520 1518 1516 1513 1511 1508 1506 1503 1501 1498 1495 1493 1491 1489 1487 1485 1483 1481 1480 1477 1475 1473 1471 1469 1467 1465 1464 1462 1461 1459 1458 1457 1456 1455 1454
1550 1551 1552 1553 1554 1555 1555 1556 1557 1557 1558 1558 1559 1559 1559 1560 1560 1560 1560 1559 1559 1559 1558 1558 1557 1556 1555 1554 1553 1552 1551 1550 1549 1547 1546 1545 1544 1543 1541 1540 1539 1537 1535 1534 1532 1530 1528 1526 1524 1523 1521 1519 1517 1514 1512 1510 1508 1505 1503 1500 1498 1495 1493 1491 1489 1487 1486 1484 1482 1481 1479 1477 1475 1474 1472 1470 1469 1467 1466 1465 1464 1463 1462 1461 1461
1548 1549 1550 1551 1552 1552 1553 1554 1555 1555 1556 1556 1557 1557 1557 1558 1558 1558 1558 1558 1557 1557 1557 1556 1555 1555 1554 1553 1552 1551 1550 1549 1547 1546 1545 1544 1543 1542 1541 1539 1538 1536 1535 1533 1532 1530 1528 1526 1525 1523 1521 1519 1517 1515 1513 1511 1509 1507 1505 1503 1500 1498 1495 1493 1491 1489 1488 1486 1485 1483 1482 1480 1479 1478 1476 1475 1473 1472 1471 1469 1468 1468 1467 1467 1466
1545 1546 1547 1548 1549 1550 1551 1552 1552 1553 1554 1554 1555 1555 1555 1555 1555 1556 1556 1555 1555 1555 1555 1554 1554 1553 1552 1552 1551 1550 1549 1548 1546 1545 1544 1543 1542 1541 1539 1538 1537 1536 1534 1533 1531 1530 1528 1526 1525 1523 1521 1520 1518 1516 1514 1512 1510 1509 1506 1504 1502 1500 1498 1495 1493 1491 1490 1488 1486 1485 1484 1483 1481 1480 1479 1478 1477 1476 1475 1474 1473 1472 1471 1471 1470
1543 1544 1545 1546 1547 1547 1548 1549 1550 1551 1551 1552 1552 1552 1553 1553 1553 1553 1553 1553 1553 1553 1552 1552 1552 1551 1550 1550 1549 1548 1547 1546 1545 1544 1543 1542 1540 1539 1538 1537 1536 1535 1533 1532 1531 1529 1528 1526 1525 1523 1521 1520 1518 1517 1515 1513 1511 1509 1508 1506 1504 1501 1499 1497 1495 1493 1491 1490 1488 1487 1486 1484 1483 1482 1481 1480 1479 1478 1478 1477 1476 1476 1475 1474 1474
1540 1541 1543 1543 1544 1545 1545 1546 1547 1548 1548 1549 1549 1550 1550 1550 1550 1550 1551 1551 1550 1550 1550 1550 1549 1549 1548 1548 1547 1546 1545 1544 1543 1542 1541 1540 1539 1538 1537 1536 1535 1533 1532 1531 1530 1528 1527 1526 1524 1523 1521 1520 1518 1517 1515 1514 1512 1510 1508 1507 1505 1503 1501 1499 1496 1495 1493 1491 1490 1488 1487 1486 1485 1483 1482 1481 1480 1480 1479 1479 1478 1478 1478 1477 1477
1538 1539 1540 1541 1542 1542 1543 1544 1544 1545 1546 1546 1547 1547 1547 1547 1548 1548 1548 1548 1547 1547 1547 1547 1546 1546 1546 1545 1545 1544 1543 1542 1542 1541 1539 1539 1538 1536 1535 1534 1533 1532 1531 1530 1528 1527 1526 1525 1523 1522 1521 1519 1518 1516 1515 1514 1512 1510 1509 1507 1505 1504 1502 1500 1498 1496 1494 1492 1491 1489 1488 1487 1486 1485 1484 1483 1482 1481 1480 1480 1480 1480 1479 1479 1479
1536 1537 1537 1538 1539 1540 1540 1541 1541 1542 1543 1543 1543 1544 1544 1544 1544 1545 1545 1545 1545 1544 1544 1544 1544 1543 1543 1542 1542 1541 1541 1540 1539 1538 1537 1537 1536 1535 1534 1533 1531 1530 1529 1528 1527 1526 1525 1524 1522 1521 1520 1518 1517 1516 1514 1513 1512 1510 1509 1507 1506 1504 1502 1501 1499 1497 1495 1493 1492 1491 1489 1488 1487 1486 1485 1484 1483 1482 1481 1481 1480 1480 1480 1480 1480
Wind_Speed
4 4 5 6 7 9 10 12 13 13 12 12 13 14 14 15 15 15 15 16 16 17 17 18 19 20 20 21 22 23 24 24 25 25 26 27 27 28 28 28 29 29 29 29 29 29 29 30 30 30 30 29 28 28 26 23 22 21 22 25 26 26 26 26 27 28 26 24 26 30 30 26 26 28 27 25 24 26 29 29 29 31 34 38 40
4 4 6 7 9 11 12 13 13 13 13 13 14 14 15 15 15 15 15 16 17 17 18 19 20 20 21 22 23 24 25 26 26 27 27 28 29 29 30 30 30 31 31 31 30 30 30 30 30 30 30 30 29 29 28 27 26 26 24 24 27 28 29 30 30 31 32 28 24 25 29 30 28 26 26 28 28 27 28 30 30 30 32 37 41
5 7 8 10 11 13 13 14 13 13 13 14 14 15 15 15 15 16 16 17 18 18 19 20 20 21 22 23 24 24 26 26 27 28 28 29 29 30 30 31 31 31 31 31 31 31 31 31 31 31 30 30 30 29 29 30 29 29 28 26 26 27 30 32 33 34 36 35 30 25 26 28 30 29 27 28 30 31 31 31 31 31 32 35 39
8 9 10 12 14 14 15 15 14 14 14 14 15 15 16 16 16 17 17 17 18 19 20 20 21 22 23 24 25 25 26 26 26 27 27 28 28 29 29 30 30 31 31 31 32 32 32 32 31 31 31 31 31 30 30 31 31 32 31 30 29 29 29 30 33 36 38 39 37 31 27 27 29 30 30 28 29 32 35 34 33 33 33 34 36
9 10 12 14 15 16 16 16 15 15 15 16 16 16 17 17 17 17 18 18 19 20 21 22 22 23 24 24 25 25 25 26 26 27 27 28 28 28 29 29 30 30 30 30 31 31 32 32 32 32 32 31 31 31 31 31 32 32 33 33 33 32 32 31 31 34 38 41 41 38 33 30 29 29 30 29 28 31 35 37 36 34 34 35 35
10 12 14 16 17 17 17 16 16 16 17 17 17 17 17 17 17 18 19 19 20 21 22 22 23 23 24 24 25 25 26 27 28 28 29 29 29 29 29 29 29 30 30 31 31 32 32 32 31 31 31 30 30 31 32 32 33 33 34 35 35 35 35 34 33 34 36 39 42 42 40 36 32 30 30 30 30 30 32 36 37 36 36 38 37
11 13 15 17 18 17 17 17 17 17 18 18 18 18 18 18 18 19 19 20 21 21 22 23 23 24 25 25 26 27 28 28 29 29 30 30 30 29 29 30 30 30 31 31 32 32 32 32 32 32 31 29 29 29 30 31 33 34 34 34 35 37 38 37 36 35 35 37 39 42 42 41 38 34 30 30 32 32 31 33 36 39 40 40 40
12 15 17 17 18 18 18 18 18 18 18 18 18 18 18 18 19 19 19 20 21 22 23 23 24 24 25 26 26 27 27 28 30 30 30 30 29 29 30 30 31 31 32 32 33 33 33 33 33 32 31 30 30 30 29 29 32 34 34 35 35 36 38 39 39 38 37 37 38 39 41 42 42 39 34 30 32 34 33 33 36 41 43 43 43
14 16 17 18 18 18 18 18 18 18 18 18 18 18 18 18 19 19 20 21 21 22 22 23 23 24 25 26 26 27 28 29 29 30 30 30 29 29 29 30 31 32 33 33 34 35 35 35 35 34 33 33 33 33 32 31 33 34 35 36 37 37 37 38 39 39 38 38 38 39 40 41 43 42 37 32 31 34 35 37 38 40 42 45 47
15 17 18 18 18 18 18 18 18 17 17 17 17 17 17 18 18 19 20 21 21 22 22 23 24 25 26 27 27 28 29 28 28 27 28 28 28 28 28 28 30 31 32 34 35 36 36 37 37 37 37 37 36 36 36 36 35 34 34 35 37 40 40 39 38 38 37 37 38 38 39 41 42 41 40 36 32 33 35 37 39 40 41 44 47
17 18 18 19 18 17 17 17 17 17 16 16 16 17 17 18 18 19 20 21 22 23 23 24 26 27 27 28 28 29 28 27 26 26 26 26 26 26 26 27 28 30 32 34 35 36 37 38 39 39 39 38 38 38 40 41 40 39 37 34 34 36 40 41 40 38 37 38 37 36 37 41 42 41 42 41 36 34 34 35 38 40 42 44 46
18 19 19 18 17 17 16 16 16 16 15 15 16 16 17 17 19 20 21 22 23 23 24 26 27 27 28 28 28 29 28 27 26 26 26 26 25 25 25 26 27 29 31 33 35 36 37 38 39 39 39 39 39 39 42 44 45 44 42 39 36 35 37 40 42 41 39 37 38 38 37 39 41 42 42 42 39 37 35 35 38 41 43 45 45
19 19 18 18 17 16 15 15 15 15 15 15 15 16 17 18 20 21 21 22 23 24 25 26 27 28 28 29 29 29 28 27 27 26 26 26 25 24 24 25 27 28 30 33 35 36 37 38 39 39 40 40 40 40 43 45 46 47 46 45 43 40 39 40 42 42 39 36 37 39 38 36 39 41 41 41 40 38 37 36 36 39 42 44 45
20 20 19 17 16 15 14 14 14 14 15 15 15 16 18 19 20 20 21 22 23 24 26 26 27 28 29 30 30 30 29 28 28 27 26 26 25 25 24 25 27 28 30 33 35 36 37 38 38 38 39 39 39 40 43 45 46 47 47 46 46 44 43 42 42 41 39 36 36 39 40 38 39 40 39 40 40 40 39 37 35 37 40 43 44
21 20 18 17 16 14 14 14 14 15 15 15 16 17 18 19 20 20 21 22 23 25 25 26 27 28 29 30 30 30 30 29 28 27 27 26 26 26 25 25 27 29 30 32 34 35 36 36 35 35 37 38 37 38 40 43 44 45 45 45 45 45 44 44 44 43 42 41 41 43 43 42 41 40 39 39 41 41 40 38 36 37 39 42 42
21 19 18 17 15 14 14 14 15 15 15 15 16 17 18 19 20 20 21 22 23 24 25 26 27 28 29 31 31 31 30 29 29 28 27 27 27 27 27 27 29 30 31 32 34 35 36 36 33 34 36 37 37 37 39 41 43 43 43 44 44 45 45 45 45 45 45 45 45 45 44 42 40 39 39 40 42 42 40 39 37 35 38 42 43
21 20 18 17 16 15 15 15 16 16 15 15 15 16 17 18 19 19 20 21 22 24 25 26 27 28 30 31 32 31 31 30 30 29 28 29 28 26 25 26 29 30 32 33 32 31 33 36 35 35 37 37 37 37 38 40 42 43 43 44 44 46 47 47 47 47 46 46 46 45 42 40 38 36 37 40 43 40 40 42 39 34 36 41 42
22 21 20 19 18 17 16 16 16 16 16 15 15 16 16 17 18 18 19 20 21 23 24 25 26 28 30 31 32 32 31 31 30 29 29 30 29 24 21 22 24 26 28 28 25 24 29 35 37 37 37 37 38 37 38 39 41 43 43 43 44 45 46 48 50 50 49 47 46 44 41 38 35 34 35 39 42 40 42 45 40 34 35 39 40
22 22 21 20 19 18 17 17 17 16 16 15 15 15 15 16 16 17 18 19 20 21 23 24 26 28 29 31 32 32 32 31 30 29 28 30 31 27 23 24 24 24 26 24 20 21 25 29 35 38 37 37 38 38 37 38 39 41 43 43 43 44 45 46 47 47 46 46 44 42 40 36 33 32 33 37 40 40 44 45 40 36 36 39 39
22 21 21 20 19 18 18 17 17 16 15 15 15 14 14 14 15 15 16 18 19 20 22 23 25 27 28 30 32 32 32 31 30 29 28 29 31 30 29 31 29 24 25 23 20 22 23 25 32 38 38 37 39 38 38 38 38 40 42 42 42 42 43 43 42 39 37 36 35 34 34 32 30 28 27 32 37 38 42 44 41 40 39 38 40
21 20 20 19 18 18 17 16 16 15 15 14 14 14 13 13 13 14 15 17 17 18 20 22 24 26 27 29 31 32 32 31 30 29 27 27 30 31 32 35 32 28 28 27 25 26 26 28 35 40 39 39 40 40 39 39 38 39 40 40 39 39 40 41 41 37 32 29 27 26 26 26 25 22 19 22 28 33 40 42 40 41 41 39 39
20 19 18 18 17 16 16 15 15 15 14 14 13 13 12 11 12 12 14 15 16 18 19 21 23 25 26 28 30 31 32 31 30 29 27 26 27 29 31 32 32 31 32 32 31 31 32 33 37 40 39 40 41 41 41 40 40 40 40 40 38 37 38 41 40 37 34 32 28 25 22 20 18 17 15 15 19 26 34 38 38 39 41 41 39
18 17 17 16 15 15 14 14 14 14 14 13 12 11 11 11 11 11 13 14 16 17 19 21 23 25 26 27 29 31 32 32 30 30 30 28 27 27 28 30 31 31 32 32 33 34 35 36 38 39 40 41 43 43 43 42 42 42 42 42 40 37 38 41 42 42 41 38 33 28 23 18 14 11 11 13 17 21 26 30 33 35 37 38 38
17 16 16 15 14 14 13 12 12 13 13 12 11 10 10 10 10 10 12 14 16 18 20 21 23 24 26 27 28 29 30 31 31 30 30 30 30 28 28 29 30 30 30 31 32 33 35 36 37 39 40 42 44 45 45 44 44 44 45 44 42 40 40 42 43 45 45 43 39 35 29 24 19 13 8 8 14 19 21 23 27 29 28 29 32
16 15 15 14 13 12 12 11 11 11 11 10 10 9 9 9 9 9 11 13 15 17 19 21 22 24 25 26 26 27 29 30 31 31 31 31 31 30 30 30 30 30 30 30 30 32 33 35 37 39 40 43 45 48 48 47 45 46 47 47 45 45 44 44 45 47 48 47 44 40 35 30 26 18 10 4 7 12 15 17 19 20 20 22 25
16 15 14 13 12 11 11 10 10 9 9 8 8 8 7 8 8 8 10 12 14 16 18 20 22 23 24 25 25 26 27 28 29 30 31 32 32 31 31 30 30 30 30 29 30 31 33 35 38 40 42 43 46 49 50 49 47 47 49 49 49 49 48 49 49 49 50 50 48 44 39 36 33 26 16 8 5 5 5 7 8 10 13 16 19
16 15 14 13 12 11 10 9 9 8 7 7 6 6 6 7 7 8 9 10 12 14 16 19 21 22 23 24 24 25 25 26 27 28 30 31 31 31 31 30 30 30 31 30 30 32 34 36 39 41 43 44 45 48 50 51 50 50 50 51 51 51 50 50 51 51 51 51 50 47 43 40 38 35 28 21 18 16 13 10 8 6 5 8 11
15 14 13 12 11 10 9 8 7 7 6 5 5 5 5 6 7 8 8 9 11 13 15 17 20 21 22 23 24 24 24 24 25 26 27 28 29 29 29 29 29 30 30 29 31 32 35 38 40 41 43 45 46 48 50 52 52 51 51 51 51 51 51 51 52 52 52 53 51 49 48 45 42 40 36 31 28 24 21 19 16 12 7 4 7
15 13 12 12 11 11 9 7 6 6 5 5 5 5 5 5 7 7 8 9 10 11 13 15 17 19 20 22 23 24 23 23 23 23 23 24 25 26 27 27 28 29 29 29 30 33 35 38 41 42 44 45 46 47 49 51 51 51 51 51 50 51 52 53 54 54 53 54 53 52 52 50 46 42 39 37 33 28 25 23 21 17 12 9 11
16 14 13 12 12 12 10 8 6 6 5 5 4 4 5 6 6 7 8 9 10 10 11 13 15 17 19 20 21 22 22 22 22 21 21 22 23 24 25 25 27 29 29 29 31 33 35 38 40 41 42 44 44 45 46 48 49 50 51 51 50 50 51 52 54 54 52 53 53 54 54 53 50 46 42 39 36 32 29 26 24 22 20 19 19
17 15 14 13 13 12 11 9 7 5 5 6 6 5 4 5 5 7 8 8 9 10 11 12 14 16 17 18 20 20 21 21 21 21 21 21 21 22 24 25 26 28 29 30 32 33 35 37 38 39 40 41 42 42 42 44 46 47 49 50 50 50 50 51 52 53 52 52 52 53 54 54 51 48 45 41 38 35 32 30 27 27 27 26 26
16 15 14 13 13 12 11 10 8 6 6 7 7 6 5 4 4 6 7 8 9 9 10 11 13 15 16 18 19 20 20 20 20 21 21 21 21 22 23 24 25 26 27 29 32 33 34 36 37 38 39 39 39 40 39 40 42 44 46 49 50 50 50 50 51 52 52 52 52 51 53 54 52 49 47 44 41 38 35 33 30 29 29 28 29
15 15 14 13 12 12 12 11 9 7 7 8 7 6 4 3 3 4 6 8 9 9 10 11 12 13 15 16 18 19 20 20 20 20 21 22 22 21 22 22 23 25 26 29 31 32 33 35 36 37 37 37 38 38 37 37 39 41 43 45 47 48 49 49 50 51 52 52 51 51 51 52 52 50 47 47 46 43 39 37 33 30 28 27 27
14 13 13 13 12 11 12 11 9 8 8 8 7 5 3 2 3 4 5 6 7 8 9 10 11 12 13 14 16 18 19 19 19 19 20 22 22 22 22 22 23 26 28 29 31 31 32 33 34 36 36 36 36 37 37 36 36 38 40 42 44 45 47 48 50 51 51 51 51 51 50 50 51 50 48 46 47 47 45 41 37 34 31 28 25
14 13 12 12 11 11 11 11 10 9 9 8 6 4 2 1 2 4 5 6 6 7 8 9 11 11 11 12 13 15 17 19 19 19 20 21 22 22 23 25 26 28 29 29 29 29 30 32 33 34 36 36 36 36 36 35 34 35 36 39 41 43 45 46 48 49 50 50 51 51 50 49 49 49 48 46 45 46 47 45 42 39 36 32 29
15 14 13 12 11 11 11 10 9 9 8 7 5 4 2 0 1 3 4 6 7 7 7 8 10 11 11 11 12 13 15 17 18 18 19 21 22 23 25 27 28 28 28 28 28 28 29 30 31 33 34 35 35 35 34 34 33 32 32 35 37 39 42 44 45 46 47 49 49 49 49 49 48 47 47 47 46 45 44 45 44 43 40 37 35
18 17 15 13 12 11 11 10 9 8 8 7 5 3 2 1 1 2 3 5 7 7 6 7 9 10 10 10 10 11 12 14 16 17 18 20 21 23 25 27 27 27 27 27 27 28 28 29 30 31 33 34 34 33 33 33 33 31 30 32 34 36 38 40 42 43 45 46 46 46 46 47 47 46 46 47 46 45 43 43 43 43 41 39 37
18 17 15 13 12 11 11 10 9 8 7 7 6 4 2 1 2 2 3 4 6 7 6 7 8 9 9 9 9 10 11 12 14 16 18 19 21 23 24 26 26 27 26 25 26 26 27 28 29 30 31 32 32 32 32 32 32 31 30 30 31 33 35 37 39 41 43 43 44 44 43 43 44 45 45 45 44 44 43 42 41 41 40 39 37
16 16 15 14 13 12 11 10 10 8 8 8 7 6 4 2 3 3 3 4 6 6 6 6 7 8 9 9 9 9 10 11 14 16 18 19 21 22 23 24 25 26 26 25 25 25 26 27 28 29 30 30 30 31 31 31 31 30 29 29 29 30 32 34 36 38 40 41 41 41 41 41 41 42 43 43 42 41 41 41 40 39 38 37 35
17 17 16 15 13 12 11 10 10 9 9 9 8 7 6 5 5 5 5 5 5 5 5 6 7 8 8 8 8 9 9 10 12 14 16 18 19 20 21 23 24 25 25 25 24 24 24 25 26 27 28 28 28 29 30 31 30 30 29 28 28 27 29 31 33 34 36 38 39 40 40 39 38 38 39 40 40 39 39 38 38 37 36 34 33
16 18 17 15 13 12 10 9 9 9 9 9 9 8 7 6 6 6 6 6 5 4 5 5 6 7 7 7 8 8 9 9 10 12 13 15 17 18 19 21 22 23 24 24 24 23 23 24 25 25 26 26 27 28 29 30 31 31 30 29 27 26 25 27 29 31 33 35 36 38 38 38 37 36 36 37 37 37 36 36 35 35 34 33 31
15 16 15 14 13 12 11 9 7 8 9 9 10 9 8 7 7 6 6 6 5 4 4 5 6 6 6 7 8 8 8 9 9 10 11 13 14 16 17 18 19 21 22 23 23 23 22 22 22 23 24 25 26 27 28 29 30 31 31 30 28 26 25 24 26 27 29 31 33 34 35 36 36 35 34 34 35 35 35 34 33 33 32 32 30
14 14 14 13 12 12 11 9 8 8 8 9 9 9 9 8 7 7 6 6 5 4 4 4 5 5 6 6 7 8 8 9 9 9 10 11 12 13 15 16 17 18 20 21 21 21 21 21 21 21 21 22 24 25 27 28 29 29 30 30 29 27 25 24 23 24 26 28 29 30 31 33 34 34 33 32 32 32 32 33 33 31 30 30 29
16 15 15 14 13 12 12 11 10 10 9 9 10 10 10 9 8 7 6 6 5 4 4 4 5 5 6 6 7 8 8 9 9 10 10 10 10 11 13 14 15 16 17 18 19 19 20 20 20 20 20 20 21 23 24 26 27 28 28 29 29 28 27 25 23 22 23 24 25 26 28 29 30 31 31 31 31 30 30 30 31 31 29 27 27
18 17 16 15 14 14 14 13 13 12 12 11 11 11 11 10 9 8 7 6 6 5 5 5 5 6 6 7 7 7 8 9 9 9 10 10 10 10 11 12 13 14 15 16 17 18 18 18 19 20 20 20 20 21 22 23 25 26 27 27 28 28 27 26 24 21 20 20 21 22 24 25 26 27 27 28 28 28 28 27 28 28 28 26 25
20 19 18 17 16 15 15 15 15 15 14 13 13 12 12 11 10 9 8 8 7 7 7 7 7 7 7 8 8 8 8 9 9 9 10 10 10 10 11 11 12 12 13 14 15 17 17 17 17 18 19 20 20 20 21 21 23 24 25 26 26 26 26 25 24 22 20 18 18 18 19 21 22 22 22 22 23 24 24 24 24 25 25 24 22
21 20 19 19 18 18 17 17 17 16 16 16 14 14 13 12 11 10 10 10 9 9 9 9 9 9 9 9 9 9 9 8 9 9 9 10 10 10 11 11 11 12 12 13 13 14 16 16 16 16 17 18 19 19 20 21 21 22 24 25 25 25 24 24 23 22 21 19 17 16 16 17 18 19 18 18 19 20 21 21 21 21 21 21 20
19 19 18 18 18 18 18 18 18 18 18 17 17 15 14 13 13 12 12 11 11 11 11 11 11 11 10 10 11 11 10 9 9 9 9 10 10 10 11 11 11 11 12 12 12 13 14 15 15 15 16 16 17 18 19 19 20 21 23 24 25 25 24 23 22 21 21 20 18 16 14 14 15 15 15 15 15 16 17 18 18 17 17 18 17
17 17 17 16 16 16 17 18 19 19 18 18 18 17 16 15 14 15 14 14 13 13 13 13 13 13 12 12 12 12 12 11 10 9 9 9 10 10 10 11 11 11 12 12 12 12 13 13 14 14 15 15 16 16 17 18 19 20 21 22 24 25 25 24 22 20 20 19 19 17 16 14 13 12 13 13 13 12 12 13 14 15 14 14 14
17 17 17 16 16 16 17 18 20 20 20 19 19 19 18 17 17 17 16 16 16 16 15 15 15 14 14 14 14 14 14 14 12 10 10 10 10 10 10 10 11 11 11 12 12 12 13 13 14 14 14 14 14 15 16 17 17 18 19 20 22 23 25 25 23 21 19 18 18 18 17 15 13 12 11 10 10 10 9 8 10 11 12 11 11
17 18 18 17 17 16 16 17 19 20 21 20 20 20 20 20 20 19 18 18 18 18 17 17 17 16 16 16 16 16 16 16 14 13 11 10 10 10 10 10 11 11 11 12 12 12 13 14 14 14 14 14 14 14 15 16 17 17 18 18 19 21 22 24 24 23 20 18 17 17 17 17 16 14 12 10 9 8 8 7 6 6 8 9 8
Wind_Direction
50 56 62 65 71 77 78 75 73 70 67 64 61 59 56 52 50 47 44 42 39 35 32 29 26 23 21 19 17 16 15 14 14 13 12 12 11 11 10 10 9 8 7 5 3 1 359 357 356 354 352 350 348 347 344 338 330 315 298 290 287 288 294 301 305 303 298 297 298 295 293 288 276 267 264 261 259 255 250 247 247 246 239 234 231
68 75 81 88 92 90 87 82 80 77 74 70 65 62 59 56 54 50 46 43 39 36 33 30 28 26 24 22 21 19 18 17 16 15 14 13 12 11 10 9 9 8 6 5 3 1 359 357 356 353 351 349 348 345 343 339 334 328 320 307 296 291 295 303 307 305 298 295 297 299 297 290 280 272 265 260 257 256 255 252 250 248 244 238 234
89 96 103 107 101 97 92 89 88 84 79 75 70 66 63 60 57 51 47 45 41 38 36 33 30 27 25 23 21 19 18 17 16 15 14 13 12 11 9 9 8 7 5 4 2 1 360 358 356 354 351 348 346 344 342 339 335 333 329 324 315 302 296 299 303 305 302 293 288 292 298 294 286 280 275 266 256 253 256 259 257 253 247 243 239
101 106 111 109 103 101 99 96 93 88 82 77 72 69 65 61 57 53 50 47 43 39 36 32 30 27 24 22 20 18 18 17 17 15 14 13 11 10 9 8 7 7 6 4 3 1 1 359 356 354 351 348 345 343 341 338 336 334 330 326 322 316 307 300 297 299 301 297 289 285 289 293 290 285 281 274 261 252 253 256 258 257 252 245 242
108 110 110 109 106 105 102 98 94 87 82 78 74 71 67 62 58 54 49 45 41 37 34 31 29 27 25 23 21 20 18 18 18 16 15 13 11 10 9 7 7 6 6 5 4 3 2 0 358 355 352 349 346 342 339 336 334 332 330 326 323 320 315 309 303 299 298 296 291 286 283 286 290 287 280 275 267 258 253 252 253 255 253 248 244
112 112 113 111 109 106 102 98 93 87 83 80 76 72 67 62 58 52 47 43 39 36 33 32 30 28 27 25 23 21 20 19 18 17 15 13 11 9 7 6 6 5 5 5 5 4 3 2 360 358 355 351 347 342 338 336 333 331 330 328 325 323 318 314 310 304 300 296 291 288 285 283 286 289 283 274 271 267 259 254 252 251 251 250 247
119 117 116 114 110 106 102 97 92 88 84 80 76 71 65 60 55 50 46 43 40 38 36 34 32 30 28 27 25 23 21 19 18 17 15 12 10 8 6 5 5 4 4 4 5 4 4 3 2 360 358 353 349 346 341 337 334 332 331 329 327 325 322 318 313 308 303 299 293 290 286 282 281 285 285 279 273 270 265 258 252 249 248 248 248
124 120 118 115 110 105 102 97 92 88 84 79 74 68 62 57 53 50 47 45 44 42 39 36 34 32 30 28 26 24 22 19 17 16 14 11 9 7 6 5 3 3 4 3 4 4 3 3 3 1 358 355 352 350 346 340 336 333 330 329 327 325 323 321 317 313 307 302 297 293 289 283 279 279 283 281 269 263 263 260 254 249 246 244 246
126 122 118 114 109 105 102 97 92 88 83 78 71 66 61 57 55 53 51 49 47 44 41 38 35 33 31 29 27 25 24 22 19 15 12 10 9 8 7 6 4 4 4 3 3 3 2 2 1 360 358 356 355 352 347 343 340 335 332 330 328 326 324 321 318 316 311 305 300 296 292 287 280 278 281 281 271 266 266 262 258 256 250 245 245
128 123 118 113 110 107 103 98 93 88 82 76 70 66 63 61 59 57 54 51 47 43 39 36 34 32 30 28 26 25 25 23 20 16 13 11 9 7 7 6 5 4 4 4 3 2 2 1 359 358 358 356 353 350 347 345 343 339 335 331 329 327 325 322 320 317 312 307 302 297 293 289 283 279 278 278 276 275 270 260 256 256 250 243 242
129 124 119 114 112 108 104 99 94 88 81 76 73 69 66 64 61 58 53 49 45 41 38 35 33 30 28 27 26 25 24 22 20 17 15 13 10 8 7 6 5 5 6 6 4 3 2 0 359 358 357 355 352 349 346 344 343 341 338 333 329 326 324 323 321 318 313 308 303 298 293 288 285 282 279 277 274 273 272 264 258 254 244 237 235
129 123 119 117 115 110 105 100 93 88 84 80 77 73 69 66 61 56 51 47 43 39 36 34 32 29 28 27 26 25 24 21 19 17 16 14 11 9 9 8 8 8 9 7 5 4 2 1 1 359 357 354 352 348 344 341 340 339 338 336 332 328 325 322 319 317 314 309 303 298 292 288 285 281 279 278 275 272 272 270 262 253 244 238 234
130 125 121 120 117 111 106 101 95 91 87 84 81 75 70 64 59 54 50 45 41 39 36 33 31 29 28 27 26 25 22 19 18 16 16 15 12 13 14 13 12 12 11 9 7 6 4 2 1 360 357 354 352 348 342 339 338 337 336 336 334 331 327 322 318 317 314 308 302 297 294 289 284 279 276 276 274 270 268 268 264 255 245 240 237
130 128 125 122 118 112 107 102 98 94 91 87 82 74 67 62 57 52 48 43 40 38 35 33 31 30 28 27 26 24 21 18 16 15 15 15 13 16 19 18 16 15 13 11 10 7 5 3 2 360 357 355 353 347 342 339 337 337 336 334 332 330 327 323 320 317 313 306 299 296 294 290 285 280 275 271 268 265 263 264 266 262 254 247 242
129 128 126 122 118 113 108 105 102 98 94 88 79 71 65 60 55 50 45 41 39 36 35 33 31 29 28 26 25 24 22 19 16 14 15 15 15 19 22 22 20 17 14 13 12 9 6 5 2 359 357 356 352 347 343 341 339 338 337 334 331 328 326 323 320 316 312 308 302 299 297 292 286 282 275 267 263 260 258 259 260 262 262 257 248
130 129 126 122 118 114 110 108 104 100 94 86 77 70 64 58 53 48 44 40 37 35 34 33 31 29 28 27 26 25 23 21 18 16 15 15 18 22 23 22 21 18 15 13 12 10 9 8 4 360 358 356 351 347 345 343 343 342 339 335 332 330 327 324 320 316 314 311 307 303 299 292 286 280 272 264 260 256 254 254 253 254 259 256 245
131 129 125 121 117 114 111 108 104 99 92 85 77 71 65 59 53 48 44 40 37 35 34 33 31 29 28 27 27 26 24 23 21 20 18 18 20 23 21 20 19 17 15 13 11 10 10 11 9 3 360 357 353 350 348 346 346 346 342 338 335 332 329 326 322 319 317 313 309 306 301 292 284 277 268 261 258 253 247 247 245 245 252 250 239
131 127 122 118 115 112 109 105 101 96 91 85 78 72 65 59 53 48 43 40 38 35 34 33 31 30 29 28 27 25 24 24 24 24 24 23 24 23 18 15 15 14 12 11 8 7 8 10 11 6 1 359 357 355 353 351 350 350 347 343 339 335 333 330 325 322 320 316 312 310 305 296 286 277 265 257 255 249 241 241 241 239 244 245 237
129 125 120 116 113 109 107 103 98 94 89 84 79 72 66 59 52 47 44 41 38 36 35 33 32 31 30 28 27 26 26 26 26 29 30 29 29 28 21 18 17 14 12 9 4 5 6 8 10 8 4 2 1 360 358 355 353 353 351 347 343 340 338 335 331 327 321 316 313 311 307 302 294 282 266 255 252 246 237 237 238 234 237 242 238
128 124 119 115 111 107 104 101 97 94 89 84 80 73 67 60 53 48 44 42 39 36 35 34 32 31 30 28 28 27 27 28 29 33 35 33 32 31 27 23 19 15 12 9 4 4 5 5 8 8 7 6 6 4 2 359 357 356 354 351 348 345 343 341 339 334 326 318 315 312 308 303 296 287 272 256 249 243 234 232 233 233 233 236 237
127 123 118 115 112 107 103 99 97 95 90 85 80 73 68 63 54 48 45 42 39 37 36 34 33 31 30 30 29 28 28 29 30 34 37 35 33 32 29 25 21 17 16 14 11 9 8 9 10 10 10 11 10 9 6 4 1 359 357 355 351 348 349 350 347 344 340 335 330 325 319 308 294 285 277 259 247 240 232 228 230 232 231 231 233
129 123 118 117 114 108 105 99 96 96 90 85 81 75 72 67 57 49 44 40 38 36 35 35 33 32 31 31 31 29 29 29 30 32 34 34 33 31 28 25 21 20 19 18 17 15 13 13 13 12 13 14 14 13 10 8 6 4 1 359 356 353 356 360 358 357 358 355 351 347 340 324 301 284 272 255 241 235 230 227 228 230 231 230 230
134 128 122 120 116 111 107 101 96 95 90 86 83 77 74 69 59 49 42 38 36 35 35 33 32 32 32 31 31 30 30 30 30 32 32 31 31 31 28 23 19 18 19 19 17 17 16 15 14 14 15 16 16 16 14 11 10 9 7 5 2 0 2 4 5 7 9 7 5 5 2 354 338 309 273 247 232 227 226 226 225 227 231 234 235
142 136 130 125 120 115 111 105 100 96 91 87 83 78 73 68 60 50 41 36 34 34 34 33 32 31 31 31 30 30 30 31 31 31 32 31 31 29 26 22 17 15 17 17 17 17 17 16 16 16 17 18 18 18 16 14 13 13 12 12 10 9 8 8 9 12 14 14 14 14 15 16 10 356 322 266 238 228 225 225 224 226 231 236 238
151 146 139 133 127 121 116 112 105 99 95 88 82 77 72 65 58 50 41 36 34 33 32 31 32 32 30 30 29 28 28 29 30 30 30 30 29 27 24 20 16 14 15 15 15 17 18 17 16 17 18 20 19 19 18 17 16 17 18 18 18 18 18 17 16 17 18 18 17 18 21 26 27 24 14 315 247 229 226 227 227 226 226 228 233
158 155 148 142 136 127 120 118 113 106 99 90 82 79 74 66 60 51 42 37 34 33 31 30 30 31 30 29 28 26 26 26 26 26 25 25 24 22 21 19 16 15 16 15 14 16 18 18 17 17 19 20 20 19 19 19 19 20 22 22 23 23 24 23 22 20 19 19 20 22 25 30 35 40 48 65 98 131 173 198 208 216 222 227 231
163 160 156 151 146 137 128 125 122 113 106 97 87 81 76 69 62 54 44 38 35 33 31 29 28 28 29 29 27 26 25 23 22 20 19 18 17 16 16 16 15 15 15 13 14 17 19 20 19 17 18 20 20 19 20 20 21 22 23 24 25 25 26 26 26 24 22 22 24 26 29 31 37 44 52 64 75 82 86 93 107 133 179 213 221
169 165 163 160 156 151 142 135 130 121 114 108 100 93 84 71 64 57 47 39 36 35 33 31 28 26 25 26 27 26 24 22 20 17 14 11 10 10 11 12 13 14 12 11 14 19 20 20 20 18 18 19 19 18 19 20 22 23 24 25 25 26 27 28 28 27 26 26 27 29 30 31 37 44 50 56 64 72 75 75 79 87 100 152 178
176 172 170 170 169 166 160 150 140 133 128 124 118 114 99 78 67 59 46 38 36 35 33 32 29 26 25 25 26 25 24 22 20 17 12 8 6 7 9 9 11 13 12 11 14 19 21 21 20 18 18 19 19 18 18 19 20 23 24 25 25 26 27 28 28 27 27 28 29 29 30 32 37 43 48 53 58 65 71 72 73 76 86 110 126
180 179 179 180 179 176 175 169 155 144 145 148 144 131 108 84 72 60 46 38 34 32 32 29 26 25 26 26 26 24 23 22 21 18 15 11 9 9 10 10 10 11 12 13 17 19 21 22 20 19 18 19 19 19 19 19 20 22 24 25 25 26 28 29 28 28 27 28 29 30 31 33 36 40 45 51 57 62 68 74 77 81 88 98 104
184 185 187 188 184 182 183 182 171 159 161 166 162 144 114 88 69 55 46 39 32 30 31 26 21 22 24 26 27 26 23 22 21 19 16 14 11 10 9 8 8 8 10 15 20 21 21 21 20 18 18 17 18 19 20 20 21 22 24 24 25 26 27 29 29 29 29 29 30 31 33 34 36 40 44 49 56 61 66 72 78 84 89 95 98
191 192 193 192 187 184 186 184 178 175 177 177 167 143 115 92 64 44 38 36 33 30 28 24 19 17 20 23 25 25 23 22 20 18 18 16 13 10 8 5 4 4 7 15 21 22 22 21 19 17 16 16 16 18 20 21 22 23 25 25 25 25 26 27 29 30 31 30 30 32 34 35 37 40 45 49 53 59 65 69 73 80 88 94 97
197 197 195 192 187 183 182 181 181 183 185 181 170 147 119 101 69 36 25 25 27 28 26 22 16 14 16 19 22 23 22 21 19 18 19 19 16 14 11 8 6 5 8 14 20 22 22 22 20 19 18 17 15 16 18 21 22 23 25 26 26 26 26 27 28 29 31 32 33 33 34 36 37 40 45 50 53 56 61 66 70 75 81 87 93
198 197 194 189 182 177 178 180 183 184 181 175 167 152 133 106 60 32 17 13 16 18 19 17 13 12 13 15 18 20 20 19 18 18 18 19 19 17 14 12 13 14 15 17 20 22 23 22 21 20 19 18 17 16 17 19 22 23 24 26 27 28 28 28 28 28 29 31 34 34 35 37 38 39 43 49 53 55 57 62 67 72 76 80 85
196 198 196 187 178 176 177 177 176 175 171 166 165 166 162 111 33 17 9 4 3 5 8 9 8 7 8 10 13 16 17 17 16 16 17 18 18 16 15 15 17 18 19 19 20 21 22 21 20 19 19 18 18 17 16 18 20 22 24 25 26 27 28 28 29 29 29 30 32 34 34 36 38 39 42 46 50 53 55 57 62 68 73 77 81
197 202 199 187 180 181 179 171 165 168 171 170 174 185 200 266 356 1 357 355 355 354 355 359 0 1 2 6 8 10 13 14 14 14 16 17 16 15 17 18 18 18 19 18 18 20 22 21 19 18 17 16 17 18 18 18 19 20 22 25 26 27 28 29 29 30 31 30 30 32 33 35 37 39 42 45 48 51 54 56 58 62 67 73 78
196 200 197 187 184 188 187 177 170 173 179 184 189 193 202 255 335 350 346 344 345 344 343 348 353 354 355 358 2 5 9 11 12 13 16 16 16 17 19 19 18 18 18 17 17 19 20 20 19 18 17 15 16 17 19 19 19 18 20 23 25 26 28 29 30 31 32 32 31 31 32 34 36 38 41 44 46 49 53 55 56 58 62 67 74
192 193 192 187 187 192 191 187 185 187 191 196 199 198 198 244 329 339 333 333 337 335 335 339 343 345 347 350 355 360 4 6 8 12 14 15 16 17 18 18 18 18 17 16 16 18 19 19 19 17 16 16 16 17 18 19 20 19 18 20 23 25 27 29 31 31 32 32 32 32 32 34 36 38 40 43 45 47 50 53 54 55 57 61 68
187 187 185 185 187 190 190 192 197 201 205 207 208 211 224 262 306 314 309 318 328 328 328 331 332 335 340 346 352 358 0 2 6 9 11 13 14 15 16 16 17 18 17 16 16 17 18 19 18 17 16 16 17 17 18 19 20 21 20 20 21 23 26 28 30 31 31 32 33 33 34 34 36 38 40 42 44 46 49 51 52 53 55 57 62
183 181 181 182 185 188 191 198 207 211 214 218 221 225 236 259 282 290 290 302 317 324 326 326 324 326 334 344 352 357 359 2 5 6 7 9 11 12 13 14 14 16 17 17 17 17 18 18 17 16 16 17 17 17 18 18 19 21 22 22 22 23 26 29 30 30 32 33 33 34 34 35 36 38 40 42 44 46 48 50 51 53 55 56 59
183 180 180 181 185 190 196 205 213 218 223 228 231 233 241 256 266 269 276 290 304 317 326 328 325 326 334 344 352 356 358 1 3 4 4 5 6 8 10 11 12 13 16 17 17 18 19 19 18 16 16 17 17 16 17 18 19 20 21 22 22 23 26 29 30 31 33 34 34 34 35 36 37 38 39 42 44 46 47 49 50 52 55 57 59
191 189 189 189 191 196 202 209 217 225 230 235 238 241 246 253 258 263 272 281 290 307 326 330 326 328 336 346 351 353 355 357 359 360 360 1 2 3 6 8 9 10 12 15 17 18 19 20 19 17 16 16 16 16 16 17 18 19 20 21 21 22 25 28 30 32 34 36 36 35 34 36 38 39 39 41 43 45 47 48 48 50 53 57 61
205 205 207 207 207 207 209 215 226 235 241 245 247 248 249 251 256 264 268 269 276 299 323 331 328 327 335 345 351 352 350 351 352 354 354 355 356 357 359 4 6 8 9 11 14 16 18 19 19 17 16 16 16 15 15 16 17 18 19 19 20 21 23 25 28 30 33 35 36 36 35 35 36 38 39 41 42 44 46 48 50 50 53 58 63
213 218 220 222 224 224 223 225 232 240 249 254 254 252 252 253 257 258 255 255 267 287 307 324 330 329 328 335 345 350 348 345 345 346 346 347 349 351 353 356 1 5 6 7 9 12 15 17 17 16 16 16 15 14 14 15 16 17 18 19 19 20 20 21 22 25 29 31 33 35 36 35 35 36 38 41 43 44 45 48 51 53 55 60 66
216 220 224 228 232 234 234 234 235 240 247 253 256 256 255 255 256 254 249 252 262 274 287 304 318 325 326 325 330 340 345 343 340 339 339 340 341 344 346 349 354 360 3 3 4 5 9 13 15 15 15 15 15 14 14 14 14 16 17 18 18 19 19 18 18 19 23 26 29 32 35 36 36 36 37 40 42 44 46 48 51 53 56 60 65
215 219 224 228 234 239 240 239 238 239 242 247 253 257 257 255 255 256 255 257 262 268 277 288 297 309 319 320 319 325 335 339 337 334 333 334 334 336 339 342 346 351 356 359 360 0 2 5 9 11 12 13 14 14 13 13 12 13 15 16 17 18 18 17 16 15 16 20 23 26 30 34 36 36 38 41 42 43 46 49 51 52 54 58 63
214 218 223 229 237 242 243 241 240 240 242 245 250 256 258 255 254 255 257 259 263 267 274 281 286 293 303 311 314 315 320 329 334 332 329 329 330 331 333 335 339 343 347 351 354 356 356 358 1 4 6 9 11 12 14 14 13 13 13 15 16 16 16 15 15 15 14 15 17 19 24 30 32 34 36 40 42 42 44 48 51 52 53 55 59
215 220 225 232 239 242 241 238 238 240 243 246 249 254 257 257 254 253 255 259 264 268 273 279 282 285 291 299 307 309 309 315 325 329 326 326 327 328 328 330 333 336 340 342 345 349 351 353 354 356 359 2 5 8 10 12 13 14 14 14 14 14 14 13 13 13 13 13 14 15 17 21 26 30 33 37 39 41 44 46 49 51 54 56 59
217 221 227 235 241 242 239 237 238 241 244 245 247 251 255 256 255 254 254 258 263 268 272 277 281 283 285 289 296 302 303 304 310 319 323 324 324 325 326 327 327 331 334 335 337 340 343 346 348 350 352 355 358 1 3 5 7 9 10 10 11 12 13 13 12 11 11 11 12 14 15 15 17 22 29 34 36 39 43 47 48 49 52 56 59
221 225 230 236 241 243 242 240 240 241 243 244 246 249 251 253 254 254 255 257 261 265 269 274 278 281 282 282 286 292 296 296 297 304 313 317 318 320 322 323 323 325 328 330 331 333 335 338 341 343 345 348 350 352 355 357 360 2 4 6 7 8 10 11 11 10 10 9 10 11 12 13 13 14 19 27 33 37 39 43 48 49 49 50 54
227 230 234 237 240 243 246 245 244 243 244 244 246 248 250 252 254 255 256 257 260 263 266 271 275 278 280 279 279 282 288 291 291 292 297 305 310 312 315 317 317 318 321 324 327 329 331 333 335 336 337 339 342 345 347 349 351 354 357 360 2 3 5 7 9 10 9 9 9 7 7 8 10 10 10 12 19 28 32 35 41 47 44 40 42